| time (UTC) | temp F | wind direction | speed MPH | gust MPH | rain 1hr in | rain 24hr in | rain mn in | humidity % | barometer mb |
| 20260504003003 | 58 | 184 | 17.0 | 33.0 | 0.00 | 0.52 | 0.52 | 43 | 1040.1 |
| 20260504001524 | 60 | 150 | 19.0 | 32.0 | 0.00 | 0.52 | 0.52 | 45 | 1040.0 |
| 20260504000004 | 61 | 162 | 13.0 | 20.0 | 0.00 | 0.52 | 0.52 | 40 | 1039.8 |
| 20260503234504 | 61 | 134 | 15.0 | 29.0 | 0.08 | 0.52 | 0.52 | 35 | 1039.3 |
| 20260503233004 | 62 | 158 | 10.0 | 20.0 | 0.18 | 0.52 | 0.52 | 33 | 1039.1 |
| 20260503231526 | 63 | 262 | 9.0 | 25.0 | 0.22 | 0.52 | 0.52 | 36 | 1038.9 |
| 20260503230006 | 65 | 256 | 28.0 | 37.0 | 0.27 | 0.52 | 0.52 | 40 | 1038.4 |
| 20260503224504 | 66 | 172 | 29.0 | 37.0 | 0.26 | 0.44 | 0.44 | 41 | 1038.3 |
| 20260503223026 | 65 | 197 | 15.0 | 32.0 | 0.25 | 0.34 | 0.35 | 34 | 1037.9 |
| 20260503221504 | 66 | 249 | 14.0 | 21.0 | 0.26 | 0.30 | 0.30 | 31 | 1037.2 |
| 20260503220004 | 68 | 246 | 23.0 | 39.0 | 0.25 | 0.25 | 0.25 | 40 | 1037.3 |
| 20260503214504 | 67 | 212 | 25.0 | 40.0 | 0.18 | 0.22 | 0.18 | 31 | 1036.1 |
| 20260503213004 | 68 | 235 | 21.0 | 35.0 | 0.09 | 0.16 | 0.09 | 34 | 1036.1 |
| 20260503211505 | 68 | 178 | 28.0 | 41.0 | 0.04 | 0.18 | 0.04 | 31 | 1035.3 |
| 20260503210005 | 68 | 156 | 18.0 | 30.0 | 0.00 | 0.19 | 0.00 | 32 | 1035.1 |
| 20260503204504 | 66 | 174 | 14.0 | 26.0 | 0.00 | 0.25 | 0.00 | 23 | 1034.1 |
| 20260503203004 | 68 | 133 | 21.0 | 36.0 | 0.00 | 0.28 | 0.00 | 29 | 1034.0 |
| 20260503201504 | 67 | 162 | 11.0 | 24.0 | 0.00 | 0.38 | 0.00 | 27 | 1033.4 |
| 20260503200004 | 67 | 123 | 20.0 | 32.0 | 0.00 | 0.40 | 0.00 | 27 | 1032.6 |
| 20260503194504 | 66 | 220 | 10.0 | 26.0 | 0.00 | 0.40 | 0.00 | 22 | 1032.1 |
| 20260503193004 | 67 | 245 | 20.0 | 34.0 | 0.00 | 0.40 | 0.00 | 31 | 1031.7 |
| 20260503191504 | 67 | 248 | 23.0 | 36.0 | 0.00 | 0.40 | 0.00 | 34 | 1031.3 |
| 20260503190025 | 67 | 231 | 29.0 | 42.0 | 0.00 | 0.40 | 0.00 | 35 | 1030.7 |
| 20260503184504 | 66 | 231 | 24.0 | 38.0 | 0.00 | 0.40 | 0.00 | 33 | 1030.1 |
| 20260503183004 | 66 | 153 | 26.0 | 40.0 | 0.00 | 0.40 | 0.00 | 36 | 1029.7 |
| 20260503181505 | 65 | 132 | 11.0 | 30.0 | 0.00 | 0.40 | 0.00 | 35 | 1029.3 |
| 20260503180004 | 64 | 66 | 13.0 | 27.0 | 0.00 | 0.40 | 0.00 | 37 | 1028.9 |
| 20260503174504 | 62 | 116 | 4.0 | 13.0 | 0.00 | 0.40 | 0.00 | 29 | 1028.0 |
| 20260503173004 | 63 | 224 | 21.0 | 36.0 | 0.00 | 0.40 | 0.00 | 40 | 1027.6 |
| 20260503171524 | 61 | 236 | 15.0 | 26.0 | 0.00 | 0.40 | 0.00 | 39 | 1027.2 |
| 20260503030004 | 47 | 200 | 7.0 | 10.0 | 0.00 | 0.40 | 0.40 | 61 | 1018.8 |
| 20260503024503 | 49 | 218 | 9.0 | 13.0 | 0.00 | 0.40 | 0.40 | 62 | 1018.5 |
| 20260503023003 | 51 | 225 | 12.0 | 18.0 | 0.00 | 0.40 | 0.40 | 63 | 1018.3 |
| 20260503021503 | 51 | 143 | 16.0 | 23.0 | 0.00 | 0.40 | 0.40 | 58 | 1017.4 |
| 20260503020003 | 52 | 135 | 9.0 | 16.0 | 0.00 | 0.40 | 0.40 | 54 | 1017.2 |
| 20260503014503 | 54 | 105 | 9.0 | 20.0 | 0.00 | 0.40 | 0.40 | 54 | 1016.9 |
| 20260503013003 | 54 | 116 | 8.0 | 23.0 | 0.00 | 0.40 | 0.40 | 48 | 1016.4 |
| 20260503011503 | 55 | 204 | 4.0 | 8.0 | 0.00 | 0.40 | 0.40 | 43 | 1015.7 |
| 20260503010003 | 57 | 175 | 17.0 | 26.0 | 0.00 | 0.40 | 0.40 | 46 | 1015.1 |
| 20260503004503 | 57 | 223 | 13.0 | 25.0 | 0.00 | 0.40 | 0.40 | 40 | 1014.2 |